• Currently

    Reported at Minneapolis, Minneapolis-St. Paul International Airport, MN
    9:53 AM CST SUN JUL 23 2017
  • 73°F23°C
  • Mostly Cloudy
    Mostly Cloudy
  • Feels Like:73°F23°CDew Point:59°F15°CHumidity:61% Winds:NNW 12 mph 19 kph
    Pressure:29.91 in1013 hPaVisibility:10.00 miles16090.00 meters
Time Weather Temp Dew Point
Humidity Winds Visibility Pressure Precipitation
1 hr 24 hr
Thursday, July 20
23:53 23:53 Cloudy With Nearby Thunderstorms Cloudy With Nearby Thunderstorms 70°F21°C 67°F19°C 90% NNW 6 mphNNW 9 kph 7.0 miles11.3 km 29.97 in1015 hPa 0.02 in12.90 mm --
23:09 23:09 Cloudy With Nearby Thunderstorms Cloudy With Nearby Thunderstorms 69°F21°C 67°F19°C 93% E 3 mphE 6 kph 10.0 miles16.1 km 29.94 in1014 hPa 0.01 in6.45 mm --
22:53 22:53 Cloudy With Light Thunderstorms Cloudy With Light Thunderstorms 69°F21°C 67°F19°C 93% ESE 7 mphESE 11 kph 5.0 miles8.0 km 29.94 in1014 hPa 0.72 in464.52 mm --
22:25 22:25 Cloudy With Heavy Thunderstorms Cloudy With Heavy Thunderstorms 70°F21°C 67°F19°C 90% NNW 5 mphNNW 7 kph 4.0 miles6.4 km 29.94 in1014 hPa 0.14 in90.32 mm --
22:16 22:16 Cloudy With Nearby Thunderstorms Cloudy With Nearby Thunderstorms 71°F22°C 67°F19°C 87% ENE 12 mphENE 19 kph 6.0 miles9.7 km 29.91 in1013 hPa 0.02 in12.90 mm --
21:53 21:53 Cloudy With Light Thunderstorms Cloudy With Light Thunderstorms 72°F22°C 66°F19°C 82% E 7 mphE 11 kph 7.0 miles11.3 km 29.94 in1014 hPa 0.00 in0.03 mm --
21:31 21:31 Cloudy With Thunderstorms Cloudy With Thunderstorms 72°F22°C 66°F19°C 82% ENE 5 mphENE 7 kph 10.0 miles16.1 km 29.91 in1013 hPa 0.00 in0.00 mm --
21:02 21:02 Mostly Cloudy With Nearby Thunderstorms Mostly Cloudy With Nearby Thunderstorms 72°F22°C 66°F19°C 82% ENE 3 mphENE 6 kph 10.0 miles16.1 km 29.91 in1013 hPa 0.00 in0.00 mm --
20:53 20:53 Mostly Cloudy With Thunderstorms Mostly Cloudy With Thunderstorms 72°F22°C 66°F19°C 82% CalmCalm 10.0 miles16.1 km 29.91 in1013 hPa 0.00 in0.00 mm --
20:50 20:50 Mostly Cloudy With Thunderstorms Mostly Cloudy With Thunderstorms 72°F22°C 66°F19°C 83% N 5 mphN 7 kph 10.0 miles16.1 km 29.91 in1013 hPa 0.00 in0.00 mm --
20:38 20:38 Mostly Cloudy With Nearby Thunderstorms Mostly Cloudy With Nearby Thunderstorms 72°F22°C 65°F18°C 79% N 6 mphN 9 kph 10.0 miles16.1 km 29.91 in1013 hPa 0.00 in0.00 mm --
19:53 19:53 Mostly Cloudy Mostly Cloudy 72°F22°C 66°F19°C 82% SSW 3 mphSSW 6 kph 10.0 miles16.1 km 29.91 in1013 hPa 0.00 in0.00 mm --
18:53 18:53 Mostly Cloudy Mostly Cloudy 71°F22°C 65°F18°C 81% S 12 mphS 19 kph 10.0 miles16.1 km 29.94 in1014 hPa 0.00 in0.00 mm --
17:53 17:53 Cloudy Cloudy 68°F20°C 64°F18°C 87% ESE 6 mphESE 9 kph 10.0 miles16.1 km 29.88 in1012 hPa 0.00 in0.00 mm --
16:53 16:53 Cloudy Cloudy 68°F20°C 64°F18°C 87% ESE 13 mphESE 20 kph 10.0 miles16.1 km 29.91 in1013 hPa 0.13 in83.87 mm --
16:35 16:35 Cloudy Cloudy 68°F20°C 64°F18°C 87% ESE 14 mphESE 22 kph 9.0 miles14.5 km 29.91 in1013 hPa 0.13 in83.87 mm --
16:21 16:21 Cloudy With Light Thunderstorms Cloudy With Light Thunderstorms 67°F19°C 63°F17°C 87% ESE 12 mphESE 19 kph 8.0 miles12.9 km 29.94 in1014 hPa 0.13 in83.87 mm --
16:13 16:13 Cloudy With Nearby Thunderstorms Cloudy With Nearby Thunderstorms 67°F19°C 64°F18°C 91% N 5 mphN 7 kph 7.0 miles11.3 km 30 in1016 hPa 0.12 in77.42 mm --
16:00 16:00 Cloudy With Nearby Thunderstorms Cloudy With Nearby Thunderstorms 67°F19°C 63°F17°C 87% SE 22 mphSE 35 kph 4.0 miles6.4 km 30 in1016 hPa 0.10 in64.52 mm --
15:53 15:53 Cloudy With Thunderstorms Cloudy With Thunderstorms 69°F21°C 62°F17°C 78% SE 14 mphSE 22 kph 2.5 miles4.0 km 30.09 in1019 hPa 0.30 in193.55 mm --
15:37 15:37 Cloudy With Heavy Thunderstorms Cloudy With Heavy Thunderstorms 72°F22°C 61°F16°C 68% SSE 8 mphSSE 13 kph 1.5 miles2.4 km 30.09 in1019 hPa 0.10 in64.52 mm --
15:35 15:35 Cloudy With Heavy Thunderstorms Cloudy With Heavy Thunderstorms 74°F23°C 60°F16°C 62% SSE 8 mphSSE 13 kph 0.8 miles1.2 km 30.12 in1020 hPa 0.07 in45.16 mm --
15:33 15:33 Cloudy With Heavy Thunderstorms Cloudy With Heavy Thunderstorms 77°F25°C 59°F15°C 54% S 15 mphS 24 kph 1.5 miles2.4 km 30.09 in1019 hPa 0.03 in19.35 mm --
15:25 15:25 Cloudy With Thunderstorms Cloudy With Thunderstorms 79°F26°C 54°F12°C 42% N 3 mphN 6 kph 10.0 miles16.1 km 30.06 in1018 hPa 0.00 in0.00 mm --
15:11 15:11 Cloudy With Nearby Thunderstorms Cloudy With Nearby Thunderstorms 80°F27°C 54°F12°C 41% ENE 7 mphENE 11 kph 10.0 miles16.1 km 30.06 in1018 hPa 0.00 in0.00 mm --
14:53 14:53 Cloudy Cloudy 80°F27°C 55°F13°C 42% E 12 mphE 19 kph 10.0 miles16.1 km 30.03 in1017 hPa 0.00 in0.00 mm --
13:53 13:53 Cloudy Cloudy 82°F28°C 55°F13°C 40% SE 12 mphSE 19 kph 10.0 miles16.1 km 30.06 in1018 hPa 0.00 in0.00 mm --
12:53 12:53 Cloudy Cloudy 82°F28°C 54°F12°C 38% ESE 16 mphESE 26 kph 10.0 miles16.1 km 30.06 in1018 hPa 0.00 in0.00 mm --
11:53 11:53 Mostly Cloudy Mostly Cloudy 81°F27°C 56°F13°C 42% ESE 15 mphESE 24 kph 10.0 miles16.1 km 30.09 in1019 hPa 0.00 in0.00 mm --
10:53 10:53 Partly Cloudy Partly Cloudy 79°F26°C 58°F14°C 49% SSE 10 mphSSE 17 kph 10.0 miles16.1 km 30.09 in1019 hPa 0.00 in0.00 mm --
09:53 09:53 Mostly Sunny Mostly Sunny 76°F24°C 57°F14°C 52% SE 13 mphSE 20 kph 10.0 miles16.1 km 30.09 in1019 hPa 0.00 in0.00 mm --
08:53 08:53 Mostly Sunny Mostly Sunny 74°F23°C 61°F16°C 64% ESE 7 mphESE 11 kph 10.0 miles16.1 km 30.09 in1019 hPa 0.00 in0.00 mm --
07:53 07:53 Mostly Sunny Mostly Sunny 69°F21°C 63°F17°C 81% E 6 mphE 9 kph 10.0 miles16.1 km 30.12 in1020 hPa 0.00 in0.00 mm --
06:53 06:53 Sunny With Hazy Sunny With Hazy 66°F19°C 61°F16°C 84% ENE 3 mphENE 6 kph 5.0 miles8.0 km 30.12 in1020 hPa 0.00 in0.00 mm --
05:53 05:53 Sunny With Hazy Sunny With Hazy 65°F18°C 60°F16°C 84% CalmCalm 6.0 miles9.7 km 30.12 in1020 hPa 0.00 in0.00 mm --
04:53 04:53 Clear Clear 62°F17°C 59°F15°C 90% CalmCalm 10.0 miles16.1 km 30.09 in1019 hPa 0.00 in0.00 mm --
03:53 03:53 Clear Clear 64°F18°C 61°F16°C 90% CalmCalm 10.0 miles16.1 km 30.12 in1020 hPa 0.00 in0.00 mm --
02:53 02:53 Clear Clear 65°F18°C 61°F16°C 87% CalmCalm 10.0 miles16.1 km 30.12 in1020 hPa 0.00 in0.00 mm --
01:53 01:53 Clear Clear 67°F19°C 63°F17°C 87% CalmCalm 10.0 miles16.1 km 30.12 in1020 hPa 0.00 in0.00 mm --
00:53 00:53 Clear Clear 67°F19°C 63°F17°C 87% CalmCalm 10.0 miles16.1 km 30.09 in1019 hPa 0.00 in0.00 mm --